Tracking 17631 objects as of 4-May-2016
HD Live streaming from Space Station
objects crossing your sky now

SCOUT X-4 R/B

Track SCOUT X-4 R/B now!
10-day predictions


NORAD ID: 1739
Int'l Code: 1965-093B
Perigee: 662.2 km
Apogee: 795.7 km
Inclination: 59.7 °
Period: 99.2 minutes
Semi major axis: 7099 km
RCS: 0.5409 m2 (medium)
Launch date: November 19, 1965
Source: United States (US)
Launch site: WALLOPS ISLAND (WLPIS)

Note: This is a ROCKET BODY
Your satellite tracking list
Your tracking list is empty





NASA's NSSDC Master Catalog

Two Line Element Set (TLE):
1 01739U 65093B   16125.14614699  .00000112  00000-0  65459-4 0  9995
2 01739  59.7059  40.9301 0093995  58.6919 302.3284 14.51165285654259
Source of the keplerian elements: AFSPC

N2YO: 404